Regional Weather Roundup
Issued by NWS Little Rock, AR

Home | Current Version | Previous Version | Graphics & Text | Print | Product List | Glossary On
Versions: 1 2 3 4 5 6 7 8 9 10 11 12 13 14 15 16 17 18 19 20 21 22 23 24 25 26 27
000
ASUS44 KLZK 241905
RWRLZK

WEATHER ROUNDUP FOR ARKANSAS
NATIONAL WEATHER SERVICE LITTLE ROCK AR
200 PM CDT THU APR 24 2014

NOTE: "FAIR" INDICATES FEW OR NO CLOUDS BELOW 12,000 FEET WITH NO
SIGNIFICANT WEATHER AND/OR OBSTRUCTIONS TO VISIBILITY.

ARZ001-003-010-029-242000-
NORTHWEST ARKANSAS

CITY           SKY/WX    TMP DP  RH WIND       PRES   REMARKS
FAYETTEVILLE   CLOUDY    64  59  83 S14       29.75R
FORT SMITH     CLOUDY    73  64  73 S7        29.72F
HARRISON       CLOUDY    73  54  51 S17G26    29.73S
BENTONVILLE    CLOUDY    66  55  68 SW18G24   29.73R
ROGERS         CLOUDY    66  57  72 S21G29    29.73R
SILOAM SPGS    CLOUDY    64  55  72 S16G25    29.72F
HIGHFILL       CLOUDY    65  58  78 S17G24    29.72R
SPRINGDALE     CLOUDY    66  59  77 S21G29    29.75R
$$

ARZ004-005-016-242000-
NORTH CENTRAL ARKANSAS

CITY           SKY/WX    TMP DP  RH WIND       PRES   REMARKS
BATESVILLE     CLOUDY    72  55  56 SE9G16    29.73F
FLIPPIN        CLOUDY    70  50  49 S14G20    29.68F
MTN HOME       CLOUDY    71  50  47 SW12G20   29.67F
$$

ARZ040-041-242000-
WEST CENTRAL ARKANSAS

CITY           SKY/WX    TMP DP  RH WIND       PRES   REMARKS
MENA           CLOUDY    70  70 100 SW8G16    29.78F
MOUNT IDA      CLOUDY    68  63  84 VRB5      29.76F
$$

ARZ009-017-025-026-028-242000-
NORTHEAST ARKANSAS

CITY           SKY/WX    TMP DP  RH WIND       PRES   REMARKS
CORNING          N/A     77  54  44 SW17G25   29.79F
JONESBORO      PTSUNNY   78  56  46 SW21G28   29.81F
NEWPORT        CLOUDY    77  58  51 SW21      29.81F
WALNUT RIDGE   PTSUNNY   75  52  43 S22G29    29.78F
BLYTHEVILLE    PTSUNNY   80  50  34 SW17G29   29.83F
NW BLYTHEVILLE PTSUNNY   81  52  36 SW22G30   29.82F
$$

ARZ022-023-033-042-044-242000-
CENTRAL ARKANSAS

CITY           SKY/WX    TMP DP  RH WIND       PRES   REMARKS
LITTLE ROCK    PTSUNNY   77  56  48 SE7       29.77F
N LITTLE ROCK  PTSUNNY   73  61  67 SE13      29.77F
JACKSONVILLE   CLOUDY    75  59  57 S6        29.78F
SEARCY         CLOUDY    75  62  64 S15       29.78F
HOT SPRINGS    CLOUDY    71  65  81 S5        29.78F
RUSSELLVILLE   CLOUDY    67  63  87 CALM      29.76F
CLINTON        CLOUDY    64  63  94 CALM      29.78R FOG
$$

ARZ036-242000-
EAST ARKANSAS

CITY           SKY/WX    TMP DP  RH WIND       PRES   REMARKS
WEST MEMPHIS   MOSUNNY   80  56  43 S21G26    29.84F
$$

ARZ050-053-066-070-073-242000-
SOUTHWEST ARKANSAS

CITY           SKY/WX    TMP DP  RH WIND       PRES   REMARKS
ARKADELPHIA    MOCLDY    70  68  93 SW9       29.79F FOG
CAMDEN         PTSUNNY   77  63  61 MISG      29.78F
TEXARKANA      CLOUDY    72  63  73 S7        29.80F
EL DORADO      PTSUNNY   78  65  63 S13G21    29.80F
DE QUEEN       CLOUDY    72  65  78 SW5       29.77S
$$

ARZ056-057-069-242000-
SOUTHEAST ARKANSAS

CITY           SKY/WX    TMP DP  RH WIND       PRES   REMARKS
PINE BLUFF     CLOUDY    78  60  53 S14G22    29.79F
STUTTGART      CLOUDY    82  55  39 S21G26    29.80F
MONTICELLO     MOSUNNY   81  59  47 S13G23    29.81F

$$





USA.gov is the U.S. government's official web portal to all federal, state and local government web resources and services.